sat.trackr.live / text

‹ back to catalog

QIANFAN-111

NORAD 68638 · 2026-075C

PAYLOAD ACTIVE UNKNOWN

§ Identity

Operator
Country
PRC
Launch date
2026-04-07
Launch site
WSC
Launch vehicle
Mass (kg)
RCS (m²)

External: N2YO · Heavens-Above · Gunter

§ Orbital elements

Epoch: 2026-09-20T03:51:50.037120Z

Period
106.59 min
Inclination
88.9864°
Eccentricity
0.0002221
Mean motion
13.51021285 rev/d
Perigee alt
1,066.8 km
Apogee alt
1,070.2 km
Semi-major
7,446.6 km
B*
5.4975e-5
RAAN
311.3018°
Arg perigee
96.6386°
Mean anomaly
263.5018°
Rev number
2,263

§ Raw data

QIANFAN-1111 68638U 26075C   26263.16099580  .00000048  00000+0  54975-4 0  99932 68638  88.9864 311.3018 0002221  96.6386 263.5018 13.51021285 22634

JSON: /api/v1/satellites/68638 · /tle

For live sub-satellite position, see the globe view (requires WebGL).

§ Visibility from observer

Set your observer location to see the next 7 days of passes ≥ 10°. The values pass through the URL so the page stays shareable.

No JS? Fill the form by hand. The geolocation button needs JavaScript.